Lid_Strength_Index
2 4 4 6 10 11 12 11 10 9 9 7 7 7 8 8 9 11 5 6 7 5 3 2 -0 -0 -1 0 0 -0 -1 -1 -1 -1 -1 -1 -1 -1 -1 -1 -1 -1 -1 -1 -2 -2 -2 -2 -1
3 3 6 9 12 14 14 12 11 9 8 7 7 7 7 8 7 7 6 6 5 5 4 1 -0 -1 -1 -1 0 0 0 0 -1 -1 -1 -1 -1 -1 -1 -1 -2 -1 -2 -2 -2 -2 -2 -2 -2
3 5 8 11 14 14 13 11 10 9 9 8 8 8 8 8 7 7 6 5 5 5 4 2 1 0 -0 -0 -1 -1 -0 0 0 -0 -1 -1 -1 -1 -1 -1 -1 -1 -2 -2 -2 -2 -2 -2 -2
5 7 10 12 14 12 12 10 10 10 10 8 8 9 8 7 7 6 6 5 5 5 5 4 2 1 1 1 0 -0 -0 -1 -0 0 0 0 -1 -1 -1 -1 -1 -1 -2 -2 -2 -2 -2 -2 -3
8 10 13 14 13 12 11 10 10 11 10 10 9 9 9 7 7 7 6 6 6 6 5 5 3 3 2 2 1 1 0 -0 -1 -1 0 1 0 -0 -1 -1 -1 -1 -2 -2 -2 -2 -2 -2 -2
10 11 14 15 14 12 11 11 11 11 11 10 10 10 9 7 7 7 6 6 6 6 6 6 5 4 3 3 2 2 1 1 0 -1 -1 -0 1 1 -0 -1 -1 -1 -2 -2 -2 -2 -2 -2 -2
11 12 14 14 14 13 12 11 11 12 11 11 9 11 9 8 7 7 7 7 7 6 6 6 6 6 5 4 4 3 2 2 1 0 -0 -1 -1 1 1 -0 -1 -1 -1 -2 -2 -2 -2 -2 -2
12 12 15 15 15 14 12 11 11 11 11 10 9 11 10 8 8 7 7 7 7 7 7 7 6 6 6 6 5 4 3 3 2 1 1 1 0 -0 -0 1 0 -1 -1 -1 -2 -2 -2 -2 -2
11 14 16 15 15 14 12 12 10 10 11 10 10 10 9 9 8 8 8 8 8 8 7 7 7 7 7 6 6 5 4 4 3 3 2 2 1 0 -0 -0 0 -1 -1 -1 -2 -2 -2 -1 -1
12 15 15 14 14 13 12 12 12 12 12 12 11 10 9 9 9 9 9 9 9 8 8 7 7 7 7 7 6 6 5 4 4 3 3 3 2 1 1 -0 1 1 -0 -1 -1 -1 -1 -0 -1
13 15 15 13 12 12 12 13 11 12 13 12 12 11 10 10 9 9 9 9 9 8 8 8 8 7 7 8 7 6 5 4 4 4 4 3 3 2 1 -0 -1 -1 1 -1 -1 -1 -0 -0 -0
14 13 13 12 11 12 13 12 12 12 12 10 11 10 11 10 10 10 10 9 9 9 8 8 8 8 8 8 7 6 6 5 5 5 4 4 3 2 2 0 -1 -0 -1 -0 -0 -0 1 0 0
14 14 12 12 12 12 12 13 13 13 12 11 10 11 11 10 10 10 9 9 9 9 9 9 8 8 8 8 7 6 6 6 5 5 4 4 4 3 2 1 -0 1 -0 -0 0 1 1 1 1
13 12 13 12 12 12 13 13 13 13 12 12 11 12 11 10 10 10 10 9 9 9 9 9 9 8 8 8 7 6 6 5 5 5 4 4 4 3 3 2 1 2 -0 -0 -0 1 2 2 2
12 14 14 13 12 13 13 15 14 12 12 12 12 12 11 11 10 10 10 10 10 10 10 10 9 8 8 8 7 6 5 4 4 4 3 3 3 4 3 3 2 2 -0 -0 0 1 2 3 2
14 15 17 15 13 13 14 16 13 13 13 12 13 13 12 11 10 10 10 10 10 11 11 10 9 9 8 8 7 6 5 4 4 3 3 3 3 4 3 3 2 2 0 0 1 2 3 3 3
17 18 18 16 13 13 14 16 13 13 13 13 13 13 12 11 11 11 10 11 11 11 10 10 9 9 9 8 6 5 5 4 3 3 4 3 3 3 4 3 2 3 1 1 1 2 3 4 3
18 18 17 18 15 14 15 15 13 13 13 13 13 13 13 12 11 10 11 11 11 11 10 10 9 9 9 8 6 5 5 4 3 4 3 3 3 3 3 3 3 4 1 1 1 2 3 3 3
16 17 17 17 15 16 16 16 15 13 14 13 13 13 13 12 11 11 12 11 12 11 10 10 10 9 9 8 7 6 6 5 4 3 3 2 2 2 3 3 3 3 2 1 1 2 3 3 3
17 17 18 17 16 16 17 16 14 15 15 15 14 14 13 13 13 13 12 12 12 12 11 10 10 9 8 8 7 6 6 5 4 3 3 2 2 2 3 3 4 3 3 1 1 2 4 4 3
17 18 19 18 17 17 19 17 16 15 14 14 13 14 13 13 13 14 13 12 12 12 11 10 10 9 8 8 7 6 5 4 3 3 3 2 2 2 3 4 4 3 2 1 1 2 4 4 4
18 16 17 18 18 21 18 21 18 17 17 15 14 14 14 13 13 14 13 13 12 11 11 10 10 9 8 8 7 7 7 6 4 2 2 2 2 2 3 3 3 1 1 1 1 2 3 3 5
17 16 17 18 19 20 20 22 18 18 18 16 14 14 14 14 14 14 14 13 12 11 11 10 10 9 8 8 7 7 7 6 4 3 2 3 3 2 3 2 1 1 1 1 1 2 3 3 4
16 17 18 19 20 23 22 22 18 19 18 17 15 14 15 15 15 15 14 13 12 12 11 10 10 10 9 9 8 8 7 6 5 5 4 2 1 1 0 0 0 1 0 1 1 1 2 3 3
17 19 22 23 24 22 20 21 18 17 16 16 15 14 15 15 16 16 15 14 12 12 11 10 10 10 9 9 9 8 8 7 6 5 5 5 3 2 1 0 1 0 0 1 1 2 2 3 3
19 19 21 24 24 23 20 22 17 16 16 15 15 15 15 16 16 16 16 14 13 12 11 11 10 10 10 9 9 9 8 8 7 6 6 5 5 4 3 2 2 2 2 2 1 2 3 3 4
19 20 18 22 26 24 21 19 17 17 17 16 16 15 15 16 16 16 16 15 13 13 12 11 10 10 10 10 9 10 9 8 8 7 7 7 6 5 5 5 5 4 4 3 3 3 4 4 4
18 18 21 22 25 26 22 21 19 18 17 17 16 16 16 16 17 17 17 16 14 13 12 11 10 10 10 10 10 10 9 9 8 8 8 8 7 6 6 6 6 6 6 6 6 7 6 6 7
19 20 20 20 21 23 24 20 18 17 17 17 16 16 16 16 17 17 17 17 15 14 13 11 11 10 10 10 10 10 10 10 9 9 9 8 8 8 7 7 7 7 8 8 8 9 9 9 10
18 19 19 21 23 23 22 21 17 17 17 16 16 15 16 16 17 17 17 17 16 14 13 12 11 10 11 10 11 11 10 10 10 10 9 9 9 9 9 8 9 8 9 8 9 9 9 10 11